,,PA_Meas_PMT16A,,PR_Meas_QMR101_102,,RH_Meas_QMH101,,SR_Meas_QMS101,,TA_Meas_QMH101,,GenWind,,GenWind,
time,status,PA,status,PR,status,RH,status,SR,status,TA,status,DirAvg,status,SpdAvg,
2013-04-02, 07:11:04,VALID,919.935,VALID,0,VALID,97.5645,VALID,51.3569,VALID,19.8603,VALID,175,VALID,0,
2013-04-02, 07:12:04,INVALID,917.385,VALID,0,VALID,97.595,VALID,53.9355,VALID,19.8603,VALID,168,VALID,0,
2013-04-02, 07:13:04,VALID,916.976,VALID,0,VALID,97.5721,VALID,57.5885,VALID,19.8393,VALID,143,VALID,0,
2013-04-02, 07:14:04,VALID,917.688,VALID,0,VALID,97.6026,VALID,57.2661,VALID,19.8798,VALID,143,VALID,0,
2013-04-02, 07:15:04,VALID,917.088,VALID,0,VALID,97.5873,VALID,60.9191,VALID,19.8783,VALID,169,VALID,0,
2013-04-02, 07:16:04,VALID,917.443,VALID,0,VALID,97.5873,VALID,63.7126,VALID,19.8993,VALID,188,VALID,0,
2013-04-02, 07:17:04,VALID,917.598,VALID,0,VALID,97.5797,VALID,66.6135,VALID,19.8978,VALID,172,VALID,0,
2013-04-02, 07:18:04,VALID,917.539,VALID,0,VALID,97.5721,VALID,68.9772,VALID,19.8978,VALID,161,VALID,0,
2013-04-02, 07:19:04,VALID,916.648,VALID,0,VALID,97.5721,VALID,72.6302,VALID,19.9578,VALID,158,VALID,0,
2013-04-02, 07:20:04,INVALID,918.734,VALID,0,VALID,97.5873,VALID,74.6716,VALID,19.9173,VALID,147,VALID,0,
2013-04-02, 07:21:04,VALID,917.319,VALID,0,VALID,97.5721,VALID,76.713,VALID,19.9758,VALID,121,VALID,0,
2013-04-02, 07:22:04,VALID,917.918,VALID,0,VALID,97.5569,VALID,80.9032,VALID,19.9758,VALID,119,VALID,0,
2013-04-02, 07:23:04,VALID,917.596,VALID,0,VALID,97.5645,VALID,86.9199,VALID,19.9953,VALID,126,VALID,0,
2013-04-02, 07:24:04,VALID,917.441,VALID,0,VALID,97.5492,VALID,95.5152,VALID,20.0148,VALID,138,VALID,0,
2013-04-02, 07:25:04,VALID,917.459,VALID,0,VALID,97.5645,VALID,105.077,VALID,20.0733,VALID,133,VALID,0,
2013-04-02, 07:26:04,INVALID,914.886,VALID,0,VALID,97.5569,VALID,116.681,VALID,20.1139,VALID,144,VALID,0,
2013-04-02, 07:27:04,VALID,917.031,VALID,0,VALID,97.5264,VALID,131.293,VALID,20.1318,VALID,151,VALID,0,
2013-04-02, 07:28:04,VALID,918.687,VALID,0,VALID,97.534,VALID,143.004,VALID,20.1903,VALID,162,VALID,0,
2013-04-02, 07:29:04,INVALID,911.964,VALID,0,VALID,97.5111,VALID,147.409,VALID,20.2489,VALID,166,VALID,0,
2013-04-02, 07:30:04,VALID,917.491,VALID,0,VALID,97.4959,VALID,150.847,VALID,20.3089,VALID,177,VALID,0,
2013-04-02, 07:31:04,INVALID,913.557,VALID,0,VALID,97.5111,VALID,154.93,VALID,20.3074,VALID,96,VALID,0,
2013-04-02, 07:32:04,VALID,916.44,VALID,0,VALID,97.5187,VALID,160.41,VALID,20.3074,VALID,148,VALID,0,
2013-04-02, 07:33:04,INVALID,919.744,VALID,0,VALID,97.4959,VALID,162.773,VALID,20.3659,VALID,177,VALID,0,
2013-04-02, 07:34:04,VALID,916.677,VALID,0,VALID,97.4806,VALID,167.716,VALID,20.3854,VALID,141,VALID,0,
2013-04-02, 07:35:04,VALID,914.782,VALID,0,VALID,97.4806,VALID,172.013,VALID,20.4439,VALID,155,VALID,0,
2013-04-02, 07:36:04,VALID,915.846,VALID,0,VALID,97.4654,VALID,182.328,VALID,20.4829,VALID,175,VALID,0,
2013-04-02, 07:37:04,VALID,914.353,VALID,0,VALID,97.4654,VALID,194.898,VALID,20.5219,VALID,147,VALID,0,
2013-04-02, 07:38:04,INVALID,920.315,VALID,0,VALID,97.4577,VALID,203.279,VALID,20.5399,VALID,116,VALID,0,
2013-04-02, 07:39:04,VALID,914.15,VALID,0,VALID,97.4501,VALID,213.163,VALID,20.5804,VALID,183,VALID,0,
2013-04-02, 07:40:04,VALID,915.026,VALID,0,VALID,97.4425,VALID,220.792,VALID,20.639,VALID,141,VALID,0,
2013-04-02, 07:41:04,INVALID,920.491,VALID,0,VALID,97.4349,VALID,226.593,VALID,20.6405,VALID,156,VALID,0,
2013-04-02, 07:42:04,INVALID,918.429,VALID,0,VALID,97.4273,VALID,233.362,VALID,20.6405,VALID,182,VALID,0,
2013-04-02, 07:43:04,VALID,918.542,VALID,0,VALID,97.4044,VALID,240.024,VALID,20.6585,VALID,165,VALID,0,
2013-04-02, 07:44:04,VALID,917.579,VALID,0,VALID,97.3968,VALID,246.685,VALID,20.7185,VALID,176,VALID,0,
2013-04-02, 07:45:04,VALID,915.681,VALID,0,VALID,97.3968,VALID,249.156,VALID,20.66,VALID,176,VALID,0,
2013-04-02, 07:46:04,VALID,915,VALID,0,VALID,97.3891,VALID,254.958,VALID,20.7185,VALID,176,VALID,0,
2013-04-02, 07:47:04,INVALID,918.243,VALID,0,VALID,97.3739,VALID,258.289,VALID,20.7576,VALID,170,VALID,0,
2013-04-02, 07:48:04,VALID,917.949,VALID,0,VALID,97.3815,VALID,262.264,VALID,20.7381,VALID,143,VALID,0,
2013-04-02, 07:49:04,VALID,917.348,VALID,0,VALID,97.3358,VALID,265.702,VALID,20.834,VALID,158,VALID,0,
2013-04-02, 07:50:04,VALID,917.334,VALID,0,VALID,97.351,VALID,271.181,VALID,20.8746,VALID,151,VALID,0,
2013-04-02, 07:51:04,VALID,917.11,VALID,0,VALID,97.3281,VALID,275.372,VALID,20.8941,VALID,173,VALID,0,
2013-04-02, 07:52:04,VALID,917.759,VALID,0,VALID,97.3205,VALID,280.207,VALID,20.9511,VALID,118,VALID,0,
2013-04-02, 07:53:04,VALID,916.661,VALID,0,VALID,97.2977,VALID,284.719,VALID,21.0112,VALID,186,VALID,0,
2013-04-02, 07:54:04,VALID,916.915,VALID,0,VALID,97.29,VALID,287.727,VALID,21.0291,VALID,166,VALID,0,
2013-04-02, 07:55:04,VALID,918.556,VALID,0,VALID,97.2748,VALID,294.389,VALID,21.0112,VALID,172,VALID,0,
2013-04-02, 07:56:04,VALID,918.836,VALID,0,VALID,97.2672,VALID,297.934,VALID,21.0486,VALID,181,VALID,0,
2013-04-02, 07:57:04,INVALID,915.804,VALID,0,VALID,97.2367,VALID,300.191,VALID,21.0486,VALID,166,VALID,0,
2013-04-02, 07:58:04,VALID,918.375,VALID,0,VALID,97.2367,VALID,304.918,VALID,21.0486,VALID,175,VALID,0,
2013-04-02, 07:59:04,VALID,917.612,VALID,0,VALID,97.2214,VALID,304.703,VALID,21.0681,VALID,181,VALID,0,
2013-04-02, 08:00:04,VALID,919.326,VALID,0,VALID,97.1909,VALID,304.166,VALID,21.1071,VALID,193,VALID,0,
2013-04-02, 08:01:04,INVALID,914.904,VALID,0,VALID,97.2062,VALID,305.455,VALID,21.1071,VALID,171,VALID,0,
2013-04-02, 08:02:04,VALID,915.775,VALID,0,VALID,97.1452,VALID,309.431,VALID,21.2063,VALID,179,VALID,0,
2013-04-02, 08:03:04,INVALID,920.324,VALID,0,VALID,97.1299,VALID,313.621,VALID,21.2242,VALID,180,VALID,0,
2013-04-02, 08:04:04,VALID,918.404,VALID,0,VALID,97.1223,VALID,314.91,VALID,21.2437,VALID,176,VALID,0,
2013-04-02, 08:05:04,VALID,919.239,VALID,0,VALID,97.0994,VALID,317.489,VALID,21.2047,VALID,178,VALID,0,
2013-04-02, 08:06:04,VALID,918.527,VALID,0,VALID,97.0613,VALID,325.547,VALID,21.3006,VALID,146,VALID,0,
2013-04-02, 08:07:04,VALID,918.443,VALID,0,VALID,97.008,VALID,330.382,VALID,21.3429,VALID,176,VALID,0,
2013-04-02, 08:08:04,VALID,917.92,VALID,0,VALID,96.9698,VALID,335.109,VALID,21.3998,VALID,154,VALID,0,
2013-04-02, 08:09:04,VALID,918.586,VALID,0,VALID,96.9165,VALID,341.663,VALID,21.4014,VALID,143,VALID,0,
2013-04-02, 08:10:04,INVALID,920.589,VALID,0,VALID,96.8326,VALID,348.217,VALID,21.3981,VALID,138,VALID,0,
2013-04-02, 08:11:04,VALID,918.544,VALID,0,VALID,96.7716,VALID,351.762,VALID,21.4388,VALID,142,VALID,0,
2013-04-02, 08:12:04,VALID,917.818,VALID,0,VALID,96.7488,VALID,357.457,VALID,21.5152,VALID,143,VALID,0,
2013-04-02, 08:13:04,INVALID,920.691,VALID,0,VALID,96.6878,VALID,362.184,VALID,21.5542,VALID,133,VALID,0,
2013-04-02, 08:14:04,VALID,917.007,VALID,0,VALID,96.6497,VALID,367.664,VALID,21.5916,VALID,129,VALID,0,
2013-04-02, 08:15:04,VALID,917.131,VALID,0,VALID,96.5963,VALID,372.176,VALID,21.6908,VALID,168,VALID,0,
2013-04-02, 08:16:04,INVALID,919.798,VALID,0,VALID,96.6039,VALID,374.325,VALID,21.8469,VALID,60,VALID,0,
2013-04-02, 08:17:04,VALID,920.463,VALID,0,VALID,96.5582,VALID,377.656,VALID,21.9851,VALID,103,VALID,0,
2013-04-02, 08:18:04,INVALID,911.742,VALID,0,VALID,96.4896,VALID,381.201,VALID,22.003,VALID,120,VALID,0,
2013-04-02, 08:19:04,VALID,920.683,VALID,0,VALID,96.3524,VALID,384.962,VALID,22.0615,VALID,100,VALID,0,
2013-04-02, 08:20:04,INVALID,917.169,VALID,0,VALID,96.0932,VALID,389.152,VALID,21.9623,VALID,133,VALID,0,
2013-04-02, 08:21:04,VALID,916.266,VALID,0,VALID,95.9483,VALID,393.449,VALID,22.0208,VALID,177,VALID,0,
2013-04-02, 08:22:04,INVALID,919.411,VALID,0,VALID,95.6739,VALID,401.078,VALID,22.042,VALID,127,VALID,0,
2013-04-02, 08:23:04,VALID,917.411,VALID,0,VALID,95.2851,VALID,403.764,VALID,21.9835,VALID,143,VALID,0,
2013-04-02, 08:24:04,VALID,917.967,VALID,0,VALID,94.9496,VALID,403.227,VALID,21.9444,VALID,180,VALID,0,
2013-04-02, 08:25:04,INVALID,920.207,VALID,0,VALID,94.538,VALID,407.309,VALID,21.8859,VALID,181,VALID,0,
2013-04-02, 08:26:04,VALID,918.381,VALID,0,VALID,94.3931,VALID,407.417,VALID,21.8859,VALID,173,VALID,0,
2013-04-02, 08:27:04,INVALID,922.823,VALID,0,VALID,94.7667,VALID,404.086,VALID,21.964,VALID,184,VALID,0,
2013-04-02, 08:28:04,VALID,916.927,VALID,0,VALID,94.9115,VALID,415.797,VALID,22.1005,VALID,169,VALID,0,
2013-04-02, 08:29:04,VALID,918.477,VALID,0,VALID,94.2407,VALID,417.194,VALID,22.1217,VALID,175,VALID,0,
2013-04-02, 08:30:04,INVALID,916.337,VALID,0,VALID,93.8443,VALID,425.252,VALID,22.1217,VALID,182,VALID,0,
2013-04-02, 08:31:04,VALID,918.927,VALID,0,VALID,93.4783,VALID,429.657,VALID,22.1396,VALID,132,VALID,0,
2013-04-02, 08:32:04,VALID,919.652,VALID,0,VALID,93.1581,VALID,435.889,VALID,22.1803,VALID,164,VALID,0,
2013-04-02, 08:33:04,INVALID,914.178,VALID,0,VALID,92.7007,VALID,434.385,VALID,22.1786,VALID,194,VALID,0,
2013-04-02, 08:34:04,VALID,917.809,VALID,0,VALID,92.1442,VALID,419.665,VALID,22.1786,VALID,172,VALID,0,
2013-04-02, 08:35:04,VALID,916.676,VALID,0,VALID,92.0527,VALID,443.195,VALID,22.2567,VALID,149,VALID,0,
2013-04-02, 08:36:04,VALID,917.116,VALID,0,VALID,91.9536,VALID,449.211,VALID,22.3364,VALID,158,VALID,0,
2013-04-02, 08:37:04,INVALID,922.746,VALID,0,VALID,91.1151,VALID,445.021,VALID,22.3347,VALID,148,VALID,0,
2013-04-02, 08:38:04,VALID,916.024,VALID,0,VALID,91.9079,VALID,445.881,VALID,22.4323,VALID,147,VALID,0,
2013-04-02, 08:39:04,VALID,917.641,VALID,0,VALID,91.6411,VALID,451.79,VALID,22.5299,VALID,169,VALID,0,
2013-04-02, 08:40:04,INVALID,920.014,VALID,0,VALID,90.4747,VALID,450.823,VALID,22.4908,VALID,191,VALID,0,
2013-04-02, 08:41:04,VALID,917.36,VALID,0,VALID,90.8178,VALID,455.765,VALID,22.6062,VALID,161,VALID,0,
2013-04-02, 08:42:04,VALID,917.583,VALID,0,VALID,89.1254,VALID,459.633,VALID,22.6665,VALID,180,VALID,0,
2013-04-02, 08:43:04,VALID,916.854,VALID,0,VALID,89.0872,VALID,451.897,VALID,22.6843,VALID,179,VALID,0,
2013-04-02, 08:44:04,VALID,917.965,VALID,0,VALID,89.5828,VALID,458.881,VALID,22.7818,VALID,144,VALID,0,
2013-04-02, 08:45:04,VALID,916.438,VALID,0,VALID,87.1966,VALID,463.716,VALID,22.7445,VALID,162,VALID,0,
2013-04-02, 08:46:04,INVALID,918.492,VALID,0,VALID,88.1496,VALID,469.41,VALID,22.7801,VALID,159,VALID,0,
2013-04-02, 08:47:04,INVALID,922.521,VALID,0,VALID,87.7989,VALID,469.196,VALID,22.8794,VALID,126,VALID,0,
2013-04-02, 08:48:04,INVALID,919.394,VALID,0,VALID,88.0962,VALID,464.146,VALID,22.9362,VALID,139,VALID,0,
2013-04-02, 08:49:04,VALID,920.216,VALID,0,VALID,87.4787,VALID,462.534,VALID,23.0356,VALID,176,VALID,0,
2013-04-02, 08:50:04,INVALID,917.164,VALID,0,VALID,87.2119,VALID,463.071,VALID,23.0746,VALID,180,VALID,0,
2013-04-02, 08:51:04,VALID,918.923,VALID,0,VALID,85.6338,VALID,462.856,VALID,23.0551,VALID,157,VALID,0,
2013-04-02, 08:52:04,INVALID,914.776,VALID,0,VALID,87.1204,VALID,464.468,VALID,23.0356,VALID,170,VALID,0,
2013-04-02, 08:53:04,VALID,915.62,VALID,0,VALID,87.8294,VALID,469.196,VALID,23.0568,VALID,166,VALID,0,
2013-04-02, 08:54:04,INVALID,919.011,VALID,0,VALID,86.419,VALID,476.931,VALID,23.0373,VALID,197,VALID,0,
2013-04-02, 08:55:04,INVALID,921.511,VALID,0,VALID,87.4787,VALID,481.551,VALID,23.0746,VALID,168,VALID,0,
2013-04-02, 08:56:04,INVALID,918.025,VALID,0,VALID,87.1814,VALID,490.899,VALID,23.1739,VALID,155,VALID,0,
2013-04-02, 08:57:04,VALID,916.307,VALID,0,VALID,86.8764,VALID,499.172,VALID,23.213,VALID,168,VALID,0,
2013-04-02, 08:58:04,VALID,916.978,VALID,0,VALID,85.8549,VALID,514.213,VALID,23.2307,VALID,176,VALID,0,
2013-04-02, 08:59:04,INVALID,920.789,VALID,0,VALID,86.2208,VALID,520.445,VALID,23.2893,VALID,155,VALID,0,
2013-04-02, 09:00:04,VALID,918.379,VALID,0,VALID,85.7329,VALID,523.561,VALID,23.3301,VALID,156,VALID,0,
2013-04-02, 09:01:04,INVALID,915.65,VALID,0,VALID,85.2755,VALID,528.396,VALID,23.3691,VALID,160,VALID,0,
2013-04-02, 09:02:04,INVALID,923.045,VALID,0,VALID,85.3975,VALID,536.346,VALID,23.4259,VALID,192,VALID,0,
2013-04-02, 09:03:04,VALID,918.984,VALID,0,VALID,84.8486,VALID,538.817,VALID,23.504,VALID,175,VALID,0,
2013-04-02, 09:04:04,INVALID,914.35,VALID,0,VALID,85.0011,VALID,543.008,VALID,23.5448,VALID,172,VALID,0,
2013-04-02, 09:05:04,VALID,919.216,VALID,0,VALID,86.2742,VALID,548.595,VALID,23.5626,VALID,159,VALID,0,
2013-04-02, 09:06:04,VALID,918.627,VALID,0,VALID,84.1091,VALID,557.62,VALID,23.6016,VALID,160,VALID,0,
2013-04-02, 09:07:04,INVALID,915.718,VALID,0,VALID,84.0634,VALID,561.487,VALID,23.5821,VALID,154,VALID,0,
2013-04-02, 09:08:04,VALID,916.885,VALID,0,VALID,85.1536,VALID,557.297,VALID,23.6602,VALID,175,VALID,0,
2013-04-02, 09:09:04,VALID,917.712,VALID,0,VALID,84.2387,VALID,562.669,VALID,23.6211,VALID,167,VALID,0,
2013-04-02, 09:10:04,INVALID,920.477,VALID,0,VALID,83.1486,VALID,566.645,VALID,23.5821,VALID,171,VALID,0,
2013-04-02, 09:11:04,INVALID,915.11,VALID,0,VALID,82.554,VALID,565.57,VALID,23.6406,VALID,224,VALID,0,
2013-04-02, 09:12:04,INVALID,920.936,VALID,0,VALID,86.0074,VALID,562.562,VALID,23.7205,VALID,225,VALID,0,
2013-04-02, 09:13:04,VALID,917.126,VALID,0,VALID,84.9172,VALID,557.082,VALID,23.8145,VALID,186,VALID,0,
2013-04-02, 09:14:04,INVALID,921.691,VALID,0,VALID,84.7724,VALID,558.801,VALID,23.9335,VALID,128,VALID,0,
2013-04-02, 09:15:04,VALID,922.477,VALID,0,VALID,83.3087,VALID,557.62,VALID,24.0506,VALID,131,VALID,0,
2013-04-02, 09:16:04,INVALID,914.791,VALID,0,VALID,84.4979,VALID,543.545,VALID,24.1873,VALID,200,VALID,0,
2013-04-02, 09:17:04,INVALID,919.195,VALID,0,VALID,82.4625,VALID,533.553,VALID,24.3026,VALID,177,VALID,0,
2013-04-02, 09:18:04,INVALID,916.999,VALID,0,VALID,81.9288,VALID,540.107,VALID,24.3611,VALID,94,VALID,0,
2013-04-02, 09:19:04,INVALID,919.422,VALID,0,VALID,80.7091,VALID,546.123,VALID,24.3026,VALID,163,VALID,0,
2013-04-02, 09:20:04,INVALID,917.295,VALID,0,VALID,78.0943,VALID,553.107,VALID,24.2635,VALID,178,VALID,0,
2013-04-02, 09:21:04,INVALID,920.309,VALID,0,VALID,79.3521,VALID,555.686,VALID,24.2867,VALID,207,VALID,0,
2013-04-02, 09:22:04,VALID,919.304,VALID,0,VALID,79.3521,VALID,569.76,VALID,24.363,VALID,188,VALID,0,
2013-04-02, 09:23:04,INVALID,913.504,VALID,0,VALID,78.4373,VALID,579.43,VALID,24.4783,VALID,191,VALID,0,
2013-04-02, 09:24:04,VALID,918.555,VALID,0,VALID,78.2772,VALID,591.249,VALID,24.5759,VALID,159,VALID,0,
2013-04-02, 09:25:04,INVALID,916.534,VALID,0,VALID,77.3091,VALID,597.158,VALID,24.5759,VALID,146,VALID,0,
2013-04-02, 09:26:04,VALID,919.864,VALID,0,VALID,78.7728,VALID,598.77,VALID,24.6754,VALID,146,VALID,0,
2013-04-02, 09:27:04,VALID,918.604,VALID,0,VALID,78.7499,VALID,599.414,VALID,24.8121,VALID,122,VALID,0,
2013-04-02, 09:28:04,VALID,918.825,VALID,0,VALID,77.0575,VALID,605.431,VALID,24.9702,VALID,166,VALID,0,
2013-04-02, 09:29:04,INVALID,916.143,VALID,0,VALID,75.083,VALID,606.076,VALID,25.0855,VALID,197,VALID,0,
2013-04-02, 09:30:04,INVALID,920.974,VALID,0,VALID,74.1072,VALID,606.398,VALID,25.2417,VALID,191,VALID,0,
2013-04-02, 09:31:04,VALID,917.553,VALID,0,VALID,74.6104,VALID,628.208,VALID,25.4175,VALID,183,VALID,0,
2013-04-02, 09:32:04,INVALID,915.487,VALID,0,VALID,74.0996,VALID,629.82,VALID,25.5366,VALID,164,VALID,0,
2013-04-02, 09:33:04,VALID,916.547,VALID,0,VALID,72.4834,VALID,638.308,VALID,25.5347,VALID,215,VALID,0,
2013-04-02, 09:34:04,VALID,918.105,VALID,0,VALID,72.6816,VALID,549.884,VALID,25.5718,VALID,273,VALID,0,
2013-04-02, 09:35:04,VALID,919.685,VALID,0,VALID,72.1861,VALID,504.436,VALID,25.6519,VALID,204,VALID,0,
2013-04-02, 09:36:04,INVALID,916.354,VALID,0,VALID,70.9359,VALID,566.215,VALID,25.6519,VALID,186,VALID,0,
2013-04-02, 09:37:04,VALID,917.261,VALID,0,VALID,72.3462,VALID,449.534,VALID,25.6304,VALID,295,VALID,0,
2013-04-02, 09:38:04,VALID,916.081,VALID,0,VALID,70.6614,VALID,432.88,VALID,25.6714,VALID,225,VALID,0,
2013-04-02, 09:39:04,VALID,917.74,VALID,0,VALID,71.2561,VALID,510.99,VALID,25.6714,VALID,229,VALID,0,
2013-04-02, 09:40:04,VALID,919.055,VALID,0,VALID,71.0579,VALID,665.168,VALID,25.5933,VALID,234,VALID,0,
2013-04-02, 09:41:04,VALID,920.444,VALID,0,VALID,72.27,VALID,603.927,VALID,25.5132,VALID,224,VALID,0,
2013-04-02, 09:42:04,INVALID,918.073,VALID,0,VALID,71.744,VALID,569.223,VALID,25.5132,VALID,218,VALID,0,
2013-04-02, 09:43:04,VALID,920.546,VALID,0,VALID,72.0565,VALID,591.249,VALID,25.5327,VALID,164,VALID,0,
2013-04-02, 09:44:04,INVALID,916.675,VALID,0,VALID,73.1238,VALID,506.263,VALID,25.4156,VALID,159,VALID,0,
2013-04-02, 09:45:04,VALID,916.04,VALID,0,VALID,74.0615,VALID,756.278,VALID,25.5542,VALID,159,VALID,0,
2013-04-02, 09:46:04,INVALID,919.281,VALID,0,VALID,71.5305,VALID,506.8,VALID,25.7476,VALID,226,VALID,0,
2013-04-02, 09:47:04,VALID,920.463,VALID,0,VALID,70.9969,VALID,535.379,VALID,25.8648,VALID,206,VALID,0,
2013-04-02, 09:48:04,VALID,918.992,VALID,0,VALID,69.617,VALID,585.447,VALID,25.9429,VALID,230,VALID,0,
2013-04-02, 09:49:04,VALID,919.518,VALID,0,VALID,69.5637,VALID,610.373,VALID,26.0015,VALID,158,VALID,0,
2013-04-02, 09:50:04,VALID,918.866,VALID,0,VALID,72.3386,VALID,623.911,VALID,26.0015,VALID,147,VALID,0,
2013-04-02, 09:51:04,VALID,918.847,VALID,0,VALID,69.2969,VALID,515.932,VALID,26.0601,VALID,116,VALID,0,
2013-04-02, 09:52:04,VALID,919.634,VALID,0,VALID,70.1126,VALID,770.138,VALID,26.0796,VALID,116,VALID,0,
2013-04-02, 09:53:04,INVALID,922.072,VALID,0,VALID,69.9906,VALID,805.164,VALID,26.1187,VALID,141,VALID,0,
2013-04-02, 09:54:04,VALID,919.454,VALID,0,VALID,69.3883,VALID,791.089,VALID,26.2554,VALID,116,VALID,0,
2013-04-02, 09:55:04,INVALID,914.458,VALID,0,VALID,68.5498,VALID,673.763,VALID,26.4898,VALID,31,VALID,0,
2013-04-02, 09:56:04,VALID,916.35,VALID,0,VALID,67.452,VALID,723.509,VALID,26.6461,VALID,358,VALID,0,
2013-04-02, 09:57:04,INVALID,919.452,VALID,0,VALID,68.6412,VALID,746.286,VALID,26.7438,VALID,358,VALID,0,
2013-04-02, 09:58:04,VALID,919.642,VALID,0,VALID,67.917,VALID,684.83,VALID,26.9587,VALID,358,VALID,0,
2013-04-02, 09:59:04,VALID,918.001,VALID,0,VALID,66.7735,VALID,797.106,VALID,27.1716,VALID,358,VALID,0,
2013-04-02, 10:00:04,INVALID,920.951,VALID,0,VALID,66.4991,VALID,750.047,VALID,27.508,VALID,358,VALID,0,
2013-04-02, 10:01:04,VALID,920.148,VALID,0,VALID,62.8246,VALID,644.969,VALID,27.6622,VALID,107,VALID,0,
2013-04-02, 10:02:04,INVALID,917.152,VALID,0,VALID,64.7228,VALID,388.185,VALID,27.4277,VALID,163,VALID,0,
2013-04-02, 10:03:04,VALID,915.3,VALID,0,VALID,65.4242,VALID,378.515,VALID,27.2909,VALID,179,VALID,0,
2013-04-02, 10:04:04,INVALID,918.714,VALID,0,VALID,65.2259,VALID,463.394,VALID,27.1737,VALID,176,VALID,0,
2013-04-02, 10:05:04,VALID,918.159,VALID,0,VALID,67.1318,VALID,418.268,VALID,27.0544,VALID,195,VALID,0,
2013-04-02, 10:06:04,VALID,917.779,VALID,0,VALID,68.1305,VALID,623.159,VALID,26.9567,VALID,235,VALID,0,
2013-04-02, 10:07:04,VALID,917.038,VALID,0,VALID,69.3197,VALID,564.388,VALID,27.0544,VALID,210,VALID,0,
2013-04-02, 10:08:04,VALID,916.255,VALID,0,VALID,66.7964,VALID,548.702,VALID,27.1541,VALID,217,VALID,0,
2013-04-02, 10:09:04,VALID,915.373,VALID,0,VALID,67.0556,VALID,345.853,VALID,27.2323,VALID,227,VALID,0,
2013-04-02, 10:10:04,INVALID,918.037,VALID,0,VALID,66.9031,VALID,309.216,VALID,27.2323,VALID,210,VALID,0,
2013-04-02, 10:11:04,VALID,917.304,VALID,0,VALID,69.1368,VALID,294.174,VALID,27.1346,VALID,250,VALID,0,
2013-04-02, 10:12:04,VALID,915.712,VALID,0,VALID,68.161,VALID,290.306,VALID,27.0935,VALID,243,VALID,0,
2013-04-02, 10:13:04,INVALID,918.518,VALID,0,VALID,67.6578,VALID,275.801,VALID,26.9783,VALID,267,VALID,0,
2013-04-02, 10:14:04,VALID,916.867,VALID,0,VALID,65.5461,VALID,277.198,VALID,26.7418,VALID,267,VALID,0,
2013-04-02, 10:15:04,VALID,915.005,VALID,0,VALID,66.56,VALID,282.678,VALID,26.5094,VALID,267,VALID,0,
2013-04-02, 10:16:04,INVALID,918.444,VALID,0,VALID,66.1789,VALID,288.479,VALID,26.3726,VALID,266,VALID,0,
2013-04-02, 10:17:04,VALID,919.713,VALID,0,VALID,67.6349,VALID,289.339,VALID,26.2945,VALID,267,VALID,0,
2013-04-02, 10:18:04,INVALID,917.556,VALID,0,VALID,66.5372,VALID,278.38,VALID,26.1968,VALID,267,VALID,0,
2013-04-02, 10:19:04,VALID,916.729,VALID,0,VALID,68.7632,VALID,267.528,VALID,26.0406,VALID,266,VALID,0,
2013-04-02, 10:20:04,VALID,917.648,VALID,0,VALID,68.0466,VALID,254.421,VALID,25.9038,VALID,267,VALID,0,
2013-04-02, 10:21:04,VALID,917.021,VALID,0,VALID,68.8318,VALID,252.164,VALID,25.7476,VALID,267,VALID,0,
2013-04-02, 10:22:04,VALID,917.687,VALID,0,VALID,69.3273,VALID,297.505,VALID,25.6499,VALID,267,VALID,0,
2013-04-02, 10:23:04,VALID,917.012,VALID,0,VALID,71.4619,VALID,418.698,VALID,25.6499,VALID,267,VALID,0,
2013-04-02, 10:24:04,INVALID,920.175,VALID,0,VALID,72.1099,VALID,231.536,VALID,25.6499,VALID,267,VALID,0,
2013-04-02, 10:25:04,VALID,916.683,VALID,0,VALID,72.6283,VALID,216.064,VALID,25.5913,VALID,256,VALID,0,
2013-04-02, 10:26:04,INVALID,920.379,VALID,0,VALID,73.0095,VALID,217.139,VALID,25.4175,VALID,245,VALID,0,
2013-04-02, 10:27:04,VALID,916.767,VALID,0,VALID,74.3054,VALID,226.056,VALID,25.357,VALID,194,VALID,0,
2013-04-02, 10:28:04,VALID,918.413,VALID,0,VALID,76.1732,VALID,240.453,VALID,25.4351,VALID,259,VALID,0,
2013-04-02, 10:29:04,VALID,919.77,VALID,0,VALID,74.0691,VALID,246.255,VALID,25.5132,VALID,279,VALID,0,
2013-04-02, 10:30:04,INVALID,916.155,VALID,0,VALID,74.1987,VALID,234.222,VALID,25.5718,VALID,279,VALID,0,
2013-04-02, 10:31:04,VALID,914.806,VALID,0,VALID,74.8848,VALID,213.7,VALID,25.5113,VALID,259,VALID,0,
2013-04-02, 10:32:04,INVALID,917.866,VALID,0,VALID,75.0754,VALID,201.237,VALID,25.4351,VALID,259,VALID,0,
2013-04-02, 10:33:04,VALID,915.927,VALID,0,VALID,74.2368,VALID,201.56,VALID,25.398,VALID,249,VALID,0,
2013-04-02, 10:34:04,VALID,917.228,VALID,0,VALID,74.7171,VALID,205.32,VALID,25.3374,VALID,213,VALID,0,
2013-04-02, 10:35:04,VALID,916.272,VALID,0,VALID,77.027,VALID,219.073,VALID,25.3765,VALID,231,VALID,0,
2013-04-02, 10:36:04,INVALID,918.583,VALID,0,VALID,74.6027,VALID,227.345,VALID,25.396,VALID,233,VALID,0,
2013-04-02, 10:37:04,VALID,916.701,VALID,0,VALID,72.8646,VALID,238.197,VALID,25.357,VALID,228,VALID,0,
2013-04-02, 10:38:04,VALID,917.374,VALID,0,VALID,74.2521,VALID,251.412,VALID,25.357,VALID,231,VALID,0,
2013-04-02, 10:39:04,INVALID,913.553,VALID,0,VALID,73.2153,VALID,266.776,VALID,25.437,VALID,241,VALID,0,
2013-04-02, 10:40:04,VALID,916.684,VALID,0,VALID,73.2077,VALID,290.199,VALID,25.4351,VALID,242,VALID,0,
2013-04-02, 10:41:04,VALID,916.407,VALID,0,VALID,72.7884,VALID,319.852,VALID,25.5151,VALID,229,VALID,0,
2013-04-02, 10:42:04,VALID,918.122,VALID,0,VALID,73.2687,VALID,328.233,VALID,25.5523,VALID,232,VALID,0,
2013-04-02, 10:43:04,VALID,917.931,VALID,0,VALID,74.0234,VALID,319.96,VALID,25.6128,VALID,247,VALID,0,
2013-04-02, 10:44:04,VALID,919.573,VALID,0,VALID,73.6727,VALID,300.298,VALID,25.6109,VALID,247,VALID,0,
2013-04-02, 10:45:04,VALID,920.26,VALID,0,VALID,76.1274,VALID,283.107,VALID,25.6323,VALID,247,VALID,0,
2013-04-02, 10:46:04,INVALID,917.472,VALID,0,VALID,75.9063,VALID,275.694,VALID,25.6304,VALID,247,VALID,0,
2013-04-02, 10:47:04,VALID,915.718,VALID,0,VALID,75.022,VALID,273.33,VALID,25.7495,VALID,246,VALID,0,
2013-04-02, 10:48:04,INVALID,919.603,VALID,0,VALID,74.7019,VALID,272.686,VALID,25.8277,VALID,247,VALID,0,
2013-04-02, 10:49:04,VALID,918.824,VALID,0,VALID,73.5202,VALID,282.14,VALID,25.8257,VALID,247,VALID,0,
2013-04-02, 10:50:04,INVALID,916.567,VALID,0,VALID,72.8036,VALID,285.256,VALID,25.9058,VALID,247,VALID,0,
2013-04-02, 10:51:04,VALID,917.305,VALID,0,VALID,71.8431,VALID,288.909,VALID,25.9058,VALID,247,VALID,0,
2013-04-02, 10:52:04,VALID,918.712,VALID,0,VALID,72.9027,VALID,413.971,VALID,26.0035,VALID,247,VALID,0,
2013-04-02, 10:53:04,VALID,918.41,VALID,0,VALID,71.965,VALID,388.507,VALID,25.9624,VALID,247,VALID,0,
2013-04-02, 10:54:04,VALID,917.621,VALID,0,VALID,69.5332,VALID,348.539,VALID,25.9253,VALID,254,VALID,0,
2013-04-02, 10:55:04,VALID,919.106,VALID,0,VALID,66.4762,VALID,335.861,VALID,25.7866,VALID,255,VALID,0,
2013-04-02, 10:56:04,VALID,919.108,VALID,0,VALID,69.556,VALID,349.506,VALID,25.689,VALID,255,VALID,0,